Regional Weather Roundup
Issued by NWS Northern Indiana

Home | Current Version | Previous Version | Text Only | Print | Product List | Glossary On
Versions: 1 2 3 4 5 6 7 8 9 10 11 12 13 14 15 16 17 18 19 20 21 22 23 24 25 26 27 28 29 30 31 32 33 34 35 36 37 38 39 40 41 42 43 44 45 46 47 48 49 50
000
ASUS43 KIWX 051110
RWRIWX

KIWX WEATHER ROUNDUP
NATIONAL WEATHER SERVICE NORTHERN INDIANA
700 AM EDT WED AUG 05 2015

NOTE: "FAIR" INDICATES FEW OR NO CLOUDS BELOW 12,000 FEET WITH NO
SIGNIFICANT WEATHER AND/OR OBSTRUCTIONS TO VISIBILITY.

* THESE STATIONS ARE NOT UNDER NWS QUALITY CONTROL. THEY ALSO MAY NOT
  REPORT WEATHER SUCH AS PRECIPITATION OR FOG.

INZ001>027-051200-
NORTHERN INDIANA

CITY           SKY/WX    TMP DP  RH WIND       PRES   REMARKS
GARY*          PTCLDY    57  57 100 CALM      30.05S
VALPARAISO     CLEAR     56  55  97 CALM      30.06R
MICHIGAN CITY* CLEAR     54  54 100 CALM      30.06R FOG
LAPORTE*       CLEAR    N/A N/A N/A CALM      30.06S
KNOX*            N/A     54  54 100 CALM      30.05R VSB<1/4
SOUTH BEND     CLEAR     58  55  90 CALM      30.06R
ELKHART*       CLEAR     57  57 100 CALM      30.06
GOSHEN         CLEAR     56  54  93 CALM      30.06R
MONTICELLO*    CLEAR     57  57 100 CALM      30.05R
LOGANSPORT*    CLEAR     57  54  88 CALM      30.06S
ROCHESTER*     CLEAR     59  59 100 CALM      30.07R
WARSAW*        CLEAR     55  55 100 CALM      30.06R
ANGOLA*        CLEAR     55  54  94 CALM      30.06R
FORT WAYNE     PTCLDY    58  56  93 CALM      30.06R
HUNTINGTON*    CLEAR     57  56  97 CALM      30.06R FOG
PERU/GRISSOM   CLEAR     59  57  95 CALM      30.05R
MARION*        CLEAR     55  55  99 CALM      30.06S

$$
INZ028>050-051200-
CENTRAL INDIANA

CITY           SKY/WX    TMP DP  RH WIND       PRES   REMARKS
LAFAYETTE      CLEAR     60  58  92 CALM      30.04F
KOKOMO*        CLEAR     57  54  88 CALM      30.06S
MUNCIE*        CLEAR     58  58 100 CALM      30.05S
INDIANAPOLIS   MOCLDY    67  60  78 N5        30.04S

$$
MIZ043>046-050>051-056>058-064>065-071>073-077>080-051200-
SOUTHWEST LOWER MICHIGAN

CITY           SKY/WX    TMP DP  RH WIND       PRES   REMARKS
BATTLE CREEK   CLEAR     57  55  93 S3        30.06R
BENTON HARBOR  CLEAR     55  54  96 CALM      30.05R
COLDWATER*     CLEAR     54  53  97 CALM      30.06R
HILLSDALE*     CLEAR     56  56 100 CALM      30.06R
HOLLAND        CLEAR     58  55  90 CALM      30.05R
GRAND RAPIDS   PTCLDY    59  56  89 CALM      30.05R
KALAMAZOO      CLEAR     55  53  93 CALM      30.07R
STURGIS*       CLEAR     54  54 100 CALM      30.06R
THREE RIVERS*  FAIR      54  53  97 CALM      30.07R

$$
OHZ001>008-015>018-024>025-051200-
NORTHWEST OHIO

CITY           SKY/WX    TMP DP  RH WIND       PRES   REMARKS
WAUSEON*       FAIR      54  54 100 W3        30.05R
DEFIANCE       PTCLDY    56  54  93 CALM      30.06R
FINDLAY        CLEAR     58  55  90 CALM      30.04R
TOLEDO EXPRESS CLEAR     56  54  93 CALM      30.04R
TOLEDO METCALF CLEAR     61  54  77 CALM      30.05R
LIMA           CLEAR     57  55  93 CALM      30.06R

$$
AND FOR LAKE MICHIGAN COASTAL AND OPEN LAKE BUOY OBSERVATIONS

STATION/POSITION TEMP    WIND        PRES    VSBY  WAVE
                 AIR SEA DIR/SP/G                  HT/PER
                 (F)     (DEG/KT/KT) (MB)    (MI)  (FT/S)
CALUMET HARBOR    67     230/  3/  5   N/A
MICHIGAN CITY     67     150/  4/  5   N/A
BURNS HARBOR      65     180/  4/  7 1017.6R
SAINT JOSEPH      65     160/  3/  4 1017.9R
4 MI NW BRIDGMAN  71 74  270/  6/  8   N/A           0
MICHIGAN CITY     69 73  240/  4/  6   N/A           1

$$
&&


USA.gov is the U.S. government's official web portal to all federal, state and local government web resources and services.